[[{"header":{"parameterUnit":"m.s-1","parameterCategory":1,"la1":30.2992,"la2":30.254,"lo1":-89.0895,"lo2":-89.0443,"dy":0.0025,"dx":0.0025,"nx":19,"ny":19,"refTime":"2026-05-16T21:00:00:Z","depth":0,"parameterNumber":2,"parameterNumberName":"U-component_of_WINDS"},"data":[0,0,0,-4.4961,-4.4964,-4.5112,-4.5113,-4.5305,-4.5307,0,0,0,0,0,0,0,0,0,0,0,-4.4919,-4.4921,-4.4961,-4.4964,-4.5112,-4.5113,-4.5305,-4.5307,0,0,0,0,0,0,0,0,0,0,0,-4.4918,-4.492,-4.4922,-4.4965,-4.5112,-4.5113,-4.5305,-4.5192,0,0,0,0,0,0,0,0,0,0,-4.5047,-4.5011,-4.492,-4.4922,-4.4966,-4.5112,-4.5113,-4.5186,-4.5199,-4.524,0,-4.5277,0,-4.5295,-4.532,-4.5321,0,0,0,-4.4963,-4.5,-4.5039,-4.4922,-4.4967,-4.5112,-4.5045,-4.5193,-4.5207,-4.5256,-4.5279,-4.5287,-4.5298,-4.5321,-4.5322,-4.5563,-4.5565,0,0,-4.4955,-4.4947,-4.5029,-4.5048,-4.5026,-4.504,-4.505,-4.5202,-4.5226,-4.528,-4.5291,-4.5301,-4.5323,-4.5324,-4.5562,-4.5564,0,0,0,-4.4932,-4.4941,-4.4975,-4.504,-4.5067,-4.5045,-4.5056,-4.522,-4.5231,-4.5293,-4.5304,-4.5324,-4.5326,-4.5561,-4.5563,-4.5613,0,0,0,-4.4927,-4.4928,-4.4972,-4.4969,-4.5064,-4.5145,-4.507,-4.5221,-4.5238,-4.5303,-4.5324,-4.5328,-4.556,-4.5562,-4.5609,-4.5637,0,0,0,-4.4909,-4.4926,-4.4948,-4.4968,-4.5032,-4.5143,-4.5163,-4.5225,-4.5245,-4.5321,-4.5329,-4.5559,-4.5562,-4.5605,-4.5631,-4.5697,0,0,0,-4.4887,-4.4992,-4.4949,-4.507,-4.503,-4.5174,-4.5162,-4.527,-4.5341,-4.5325,-4.556,-4.5563,-4.5604,-4.5628,-4.5693,-4.5749,-4.5772,0,0,-4.5015,-4.5007,-4.5079,-4.5045,-4.5194,-4.5152,-4.5308,-4.5381,-4.5396,-4.5507,-4.5513,-4.561,-4.5631,-4.5696,-4.591,-4.5928,0,0,0,-4.5117,-4.5168,-4.5209,-4.5277,-4.5335,-4.5387,-4.5437,-4.5464,-4.5559,-4.5451,-4.5653,-4.5666,-4.5704,-4.5731,-4.5747,-4.5779,-4.5576,-4.5575,-4.5575,-4.5285,-4.5298,-4.5418,-4.5449,-4.5515,-4.5565,-4.5619,-4.5664,-4.5659,-4.5706,-4.5738,-4.5866,-4.5898,-4.5909,-4.5943,-4.5771,-4.5771,-4.5772,-4.5772,-4.5472,-4.5545,-4.5536,-4.5648,-4.5661,-4.5756,-4.5809,-4.5801,-4.5891,-4.5843,-4.5878,-4.5822,-4.5929,-4.5959,-4.5776,-4.5775,-4.5775,-4.5774,-4.5774,-4.5581,-4.5618,-4.565,-4.5748,-4.5823,-4.5851,-4.5937,-4.5947,-4.5957,-4.5991,-4.6025,-4.6024,-4.6022,-4.6007,-4.6008,-4.6008,-4.6009,-4.6009,-4.6009,-4.568,-4.5714,-4.5785,-4.5856,-4.5901,-4.596,-4.6013,-4.6056,-4.6107,-4.6107,-4.6108,-4.6096,-4.5938,-4.5897,-4.6016,-4.6015,-4.6014,-4.6013,-4.6013,-4.586,-4.5821,-4.593,-4.5974,-4.6058,-4.6131,-4.6143,-4.6231,-4.6269,-4.6311,-4.6293,-4.6176,-4.6168,-4.6156,-4.6121,-4.6291,-4.6291,-4.6291,-4.6291,-4.5949,-4.5947,-4.6061,-4.6131,-4.6201,-4.6223,-4.6345,-4.6387,-4.6425,-4.6449,-4.6426,-4.6382,-4.637,-4.6369,-4.6352,-4.632,-4.6537,-4.6537,-4.6538,-4.6059,-4.6064,-4.6166,-4.6202,-4.6268,-4.6325,-4.644,-4.652,-4.6555,-4.6548,-4.6467,-4.6457,-4.6386,-4.6363,-4.635,-4.6324,-4.6265,0,0]},{"header":{"parameterUnit":"m.s-1","parameterCategory":1,"la1":30.2992,"la2":30.254,"lo1":-89.0895,"lo2":-89.0443,"dy":0.0025,"dx":0.0025,"nx":19,"ny":19,"refTime":"2026-05-16T21:00:00:Z","depth":0,"parameterNumber":3,"parameterNumberName":"V-component_of_WINDS"},"data":[0,0,0,2.237,2.237,2.2349,2.2348,2.2339,2.2339,0,0,0,0,0,0,0,0,0,0,0,2.2388,2.2388,2.237,2.237,2.2349,2.2348,2.2339,2.2339,0,0,0,0,0,0,0,0,0,0,0,2.2387,2.2388,2.2388,2.237,2.2349,2.2348,2.2339,2.2348,0,0,0,0,0,0,0,0,0,0,2.2366,2.2393,2.2388,2.2388,2.237,2.2349,2.2348,2.2349,2.2348,2.2356,0,2.2367,0,2.2353,2.2339,2.2339,0,0,0,2.2362,2.2394,2.2378,2.2388,2.237,2.2349,2.2356,2.2348,2.2347,2.2355,2.2366,2.2366,2.2353,2.2339,2.2339,2.2418,2.2419,0,0,2.2363,2.2389,2.2379,2.2378,2.2383,2.2357,2.2355,2.2347,2.2361,2.2366,2.2365,2.2353,2.2339,2.2339,2.2417,2.2418,0,0,0,2.2372,2.2391,2.2375,2.2379,2.2374,2.2356,2.2355,2.2361,2.2354,2.2365,2.2352,2.2339,2.234,2.2416,2.2418,2.2482,0,0,0,2.2372,2.2396,2.2376,2.2392,2.2374,2.2367,2.2369,2.2354,2.2353,2.2353,2.2339,2.234,2.2416,2.2417,2.2479,2.2508,0,0,0,2.2385,2.2397,2.2398,2.2393,2.2385,2.2367,2.2359,2.2353,2.2346,2.2339,2.234,2.2415,2.2417,2.2475,2.2503,2.2538,0,0,0,2.2406,2.2454,2.2399,2.2448,2.2385,2.2407,2.2358,2.2373,2.2375,2.234,2.2416,2.2418,2.2474,2.2499,2.2535,2.2573,2.2592,0,0,2.2481,2.2464,2.249,2.2441,2.2479,2.2408,2.2456,2.2432,2.2406,2.2416,2.2417,2.248,2.2502,2.2537,2.2683,2.2698,0,0,0,2.2523,2.2542,2.2547,2.2551,2.2535,2.2524,2.2491,2.2483,2.249,2.2417,2.2501,2.2513,2.2533,2.255,2.2563,2.2578,2.2426,2.2426,2.2426,2.2666,2.2633,2.2675,2.264,2.2644,2.2611,2.2612,2.2595,2.2558,2.2579,2.2581,2.2674,2.2695,2.2704,2.2721,2.2598,2.2598,2.2599,2.2599,2.2773,2.2796,2.2749,2.2773,2.2737,2.2757,2.2727,2.2701,2.2715,2.2668,2.2684,2.2637,2.2722,2.2735,2.2603,2.2602,2.2602,2.2601,2.2601,2.2864,2.2869,2.2859,2.2864,2.2871,2.2833,2.285,2.2816,2.2785,2.28,2.2801,2.2799,2.2795,2.2803,2.2803,2.2803,2.2804,2.2804,2.2804,2.2962,2.2949,2.2967,2.2956,2.2956,2.2951,2.292,2.2919,2.2909,2.2883,2.2883,2.2846,2.2736,2.271,2.2809,2.2808,2.2807,2.2807,2.2807,2.3085,2.3052,2.308,2.308,2.3066,2.3077,2.3035,2.3036,2.303,2.304,2.2999,2.2923,2.2903,2.2893,2.2871,2.3005,2.3005,2.3005,2.3006,2.3162,2.3149,2.3172,2.3174,2.3173,2.3138,2.3173,2.315,2.3121,2.3115,2.3091,2.3059,2.305,2.3035,2.3021,2.3001,2.3166,2.3166,2.3166,2.3237,2.3222,2.3258,2.3229,2.3217,2.3207,2.3238,2.3244,2.3204,2.3172,2.3111,2.3104,2.3052,2.3037,2.3003,2.2983,2.2944,0,0]}]]